This demonstration page uses our WeatherBlox Daily Observations layout. Learn more.

Left ArrowRight Arrow

39.92423, -83.80882

Hourly Observations for March 17, 2020

Temp ( °F °C ) Dew Point ( °F °C ) Humidity (%) Winds ( mph kmh ) Pressure ( in mb ) Visibility ( mi km ) Precip ( " mm )
12:32 am 00:32 Cloudy with Light Rain 41 5 41 5 100 100 SW 5 7 30.19 1022 10 16.0934 0.001 0.001
12:56 am 00:56 Cloudy 41 5 41 5 100 100 SSW 3 6 30.18 1022 10 16.0934 0.001 0.001
1:38 am 01:38 Cloudy 41 5 41 5 100 100 SSW 6 9 30.16 1021 10 16.0934 0 0
1:56 am 01:56 Cloudy 41 5 41 5 100 100 SSW 5 7 30.15 1021 10 16.0934 0 0
2:37 am 02:37 Cloudy 41 5 41 5 100 100 SW 5 7 30.16 1021 10 16.0934 0 0
2:56 am 02:56 Cloudy 41 5 41 5 100 100 SSW 3 6 30.14 1021 10 16.0934 0 0
3:56 am 03:56 Cloudy 41 5 41 5 100 100 SW 6 9 30.14 1021 10 16.0934 0 0
4:56 am 04:56 Cloudy 41 5 41 5 100 100 SW 7 11 30.14 1021 10 16.0934 0 0
5:11 am 05:11 Cloudy with Mist and Fog 41 5 41 5 100 100 SW 8 13 30.14 1021 5 8.0467 0 0
5:24 am 05:24 Cloudy with Mist and Fog 41 5 41 5 100 100 SW 9 15 30.14 1021 5 8.0467 0 0
5:54 am 05:54 Cloudy with Mist and Fog 41 5 41 5 100 100 WSW 7 11 30.14 1021 4 6.43736 0.001 0.001
5:56 am 05:56 Cloudy with Mist and Fog 41 5 41 5 100 100 WSW 7 11 30.14 1021 4 6.43736 0.001 0.001
6:03 am 06:03 Cloudy with Mist and Fog 41 5 41 5 100 100 W 7 11 30.15 1021 4 6.43736 0 0
6:28 am 06:28 Cloudy with Mist and Fog 41 5 41 5 100 100 WNW 7 11 30.16 1021 2.5 4.02335 0 0
6:39 am 06:39 Cloudy with Mist and Fog 41 5 41 5 100 100 WNW 8 13 30.16 1021 5 8.0467 0 0
6:49 am 06:49 Cloudy with Mist and Fog 41 5 41 5 100 100 W 7 11 30.16 1021 5 8.0467 0 0
6:56 am 06:56 Cloudy with Mist and Fog 41 5 41 5 100 100 WNW 6 9 30.16 1021 5 8.0467 0 0
7:06 am 07:06 Cloudy with Mist and Fog 41 5 41 5 100 100 W 6 9 30.18 1022 4 6.43736 0 0
7:35 am 07:35 Cloudy with Light Rain 41 5 41 5 100 100 WNW 9 15 30.18 1022 2.5 4.02335 0.001 0.001
7:44 am 07:44 Cloudy with Light Rain 41 5 41 5 100 100 WNW 9 15 30.19 1022 4 6.43736 0.001 0.001
7:56 am 07:56 Cloudy with Mist and Fog 41 5 41 5 100 100 WNW 12 19 30.18 1022 3 4.82802 0.001 0.001
8:19 am 08:19 Cloudy with Mist and Fog 41 5 41 5 100 100 WNW 15 24 30.2 1023 2 3.21868 0 0
8:39 am 08:39 Cloudy with Mist and Fog 41 5 41 5 100 100 WNW 14 22 30.2 1023 4 6.43736 0 0
8:56 am 08:56 Cloudy with Mist and Fog 41 5 41 5 100 100 WNW 9 15 30.2 1023 6 9.65604 0 0
9:56 am 09:56 Cloudy 41 5 40 4.4 96 96 WNW 13 20 30.23 1024 10 16.0934 0 0
10:56 am 10:56 Cloudy 39 3.9 38 3.3 96 96 WNW 13 20 30.26 1025 10 16.0934 0.001 0.001
11:22 am 11:22 Cloudy with Light Rain 39 4 39 4 100 100 NW 10 17 30.28 1025 5 8.0467 0.001 0.001
11:39 am 11:39 Cloudy 39 4 37 3 93 93 WNW 10 17 30.29 1026 10 16.0934 0.001 0.001
11:56 am 11:56 Cloudy 41 5 37 2.8 86 86 WNW 10 17 30.28 1025 10 16.0934 0.001 0.001
12:56 pm 12:56 Cloudy 42 5.6 37 2.8 82 82 NW 12 19 30.29 1026 10 16.0934 0 0
1:56 pm 13:56 Cloudy 44 6.7 36 2.2 73 73 NNW 9 15 30.29 1026 10 16.0934 0 0
2:56 pm 14:56 Cloudy 44 6.7 36 2.2 73 73 NW 13 20 30.29 1026 10 16.0934 0 0
3:56 pm 15:56 Cloudy 44 6.7 36 2.2 73 73 NW 9 15 30.29 1026 10 16.0934 0 0
4:56 pm 16:56 Cloudy 45 7.2 36 2.2 71 71 WNW 8 13 30.3 1026 10 16.0934 0 0
5:56 pm 17:56 Cloudy 45 7.2 36 2.2 71 71 WNW 8 13 30.3 1026 10 16.0934 0 0
6:56 pm 18:56 Cloudy 44 6.7 35 1.7 71 71 WNW 9 15 30.32 1027 10 16.0934 0 0
7:56 pm 19:56 Mostly Cloudy 41 5 35 1.7 79 79 WNW 3 6 30.33 1027 10 16.0934 0 0
8:05 pm 20:05 Partly Cloudy 41 5 34 1 76 76 Calm 30.34 1028 10 16.0934 0 0
8:56 pm 20:56 Clear 37 2.8 34 1.1 89 89 Calm 30.35 1028 10 16.0934 0 0
9:56 pm 21:56 Clear 34 1.1 33 0.6 97 97 E 5 7 30.36 1028 10 16.0934 0 0
10:56 pm 22:56 Clear 33 0.6 32 0 96 96 ESE 5 7 30.37 1028 10 16.0934 0 0
11:56 pm 23:56 Clear 30 -1.1 30 -1.1 100 100 ESE 6 9 30.36 1028 9 14.48406 0 0

Powered by AerisWeather